| time (UTC) | temp F | wind direction | speed knots | gust knots | rain 1hr in | rain 24hr in | rain mn in | humidity % | barometer mb |
| 20260902101540 | 77 | 200 | 5.2 | 7.8 | 0.00 | 0.02 | 0.00 | 54 | 1001.2 |
| 20260902100034 | 77 | 185 | 6.1 | 7.0 | 0.00 | 0.02 | 0.00 | 55 | 1001.1 |
| 20260902094535 | 77 | 167 | 7.0 | 8.7 | 0.00 | 0.02 | 0.00 | 54 | 1001.1 |
| 20260902093033 | 78 | 182 | 7.0 | 7.8 | 0.00 | 0.02 | 0.00 | 53 | 1001.1 |
| 20260902091540 | 79 | 182 | 6.1 | 7.8 | 0.00 | 0.02 | 0.00 | 52 | 1001.1 |
| 20260902090028 | 79 | 182 | 9.6 | 13.9 | 0.00 | 0.02 | 0.00 | 52 | 1001.2 |
| 20260902084527 | 79 | 169 | 12.2 | 15.6 | 0.00 | 0.02 | 0.02 | 51 | 1001.1 |
| 20260902083028 | 80 | 169 | 12.2 | 13.9 | 0.00 | 0.02 | 0.02 | 51 | 1001.2 |
| 20260902081534 | 80 | 171 | 11.3 | 12.2 | 0.00 | 0.02 | 0.02 | 51 | 1001.2 |
| 20260902080022 | 81 | 165 | 12.2 | 14.8 | 0.00 | 0.02 | 0.02 | 49 | 1001.2 |
| 20260902074528 | 80 | 171 | 11.3 | 12.2 | 0.00 | 0.02 | 0.02 | 50 | 1001.2 |
| 20260902073023 | 81 | 173 | 7.0 | 8.7 | 0.00 | 0.02 | 0.02 | 49 | 1001.2 |
| 20260902071529 | 81 | 175 | 7.0 | 11.3 | 0.00 | 0.02 | 0.02 | 49 | 1001.1 |
| 20260902070027 | 81 | 178 | 10.4 | 13.9 | 0.00 | 0.02 | 0.02 | 49 | 1001.1 |
| 20260902064527 | 82 | 178 | 9.6 | 13.0 | 0.00 | 0.02 | 0.02 | 48 | 1001.3 |
| 20260902063022 | 82 | 192 | 8.7 | 11.3 | 0.00 | 0.02 | 0.02 | 48 | 1001.3 |
| 20260902061539 | 82 | 196 | 6.1 | 7.8 | 0.00 | 0.02 | 0.02 | 47 | 1001.4 |
| 20260902060033 | 83 | 202 | 4.3 | 9.6 | 0.00 | 0.02 | 0.02 | 46 | 1001.4 |
| 20260902054532 | 83 | 196 | 7.8 | 13.9 | 0.00 | 0.02 | 0.02 | 45 | 1001.3 |
| 20260902053034 | 83 | 177 | 13.0 | 20.0 | 0.00 | 0.02 | 0.02 | 45 | 1001.1 |
| 20260902051619 | 83 | 171 | 15.6 | 19.1 | 0.00 | 0.02 | 0.02 | 45 | 1001.0 |
| 20260902050019 | 84 | 154 | 15.6 | 20.0 | 0.00 | 0.02 | 0.02 | 45 | 1000.9 |
| 20260902044524 | 84 | 155 | 13.9 | 18.2 | 0.00 | 0.02 | 0.02 | 45 | 1000.9 |
| 20260902043030 | 85 | 160 | 16.5 | 20.9 | 0.00 | 0.02 | 0.02 | 44 | 1000.9 |
| 20260902041524 | 85 | 147 | 14.8 | 18.2 | 0.00 | 0.02 | 0.02 | 45 | 1001.0 |
| 20260902040030 | 85 | 153 | 13.9 | 19.1 | 0.00 | 0.02 | 0.02 | 45 | 1000.9 |
| 20260902034529 | 86 | 167 | 16.5 | 22.6 | 0.00 | 0.02 | 0.02 | 44 | 1000.9 |
| 20260902033034 | 87 | 164 | 13.0 | 18.2 | 0.01 | 0.02 | 0.02 | 43 | 1000.7 |
| 20260902031532 | 87 | 140 | 9.6 | 15.6 | 0.02 | 0.02 | 0.02 | 42 | 1000.5 |
| 20260902030019 | 87 | 161 | 17.4 | 19.1 | 0.02 | 0.02 | 0.02 | 42 | 1000.2 |
| 20260902024516 | 87 | 160 | 12.2 | 18.2 | 0.02 | 0.02 | 0.02 | 45 | 999.9 |
| 20260902023020 | 86 | 157 | 15.6 | 20.9 | 0.01 | 0.01 | 0.01 | 45 | 999.6 |
| 20260902021517 | 86 | 147 | 16.5 | 20.0 | 0.00 | 0.00 | 0.00 | 44 | 999.8 |
| 20260902020016 | 87 | 18 | 14.8 | 24.3 | 0.00 | 0.00 | 0.00 | 39 | 1000.0 |
| 20260902014532 | 86 | 336 | 13.0 | 18.2 | 0.00 | 0.00 | 0.00 | 44 | 999.9 |
| 20260902013015 | 88 | 291 | 11.3 | 18.2 | 0.00 | 0.00 | 0.00 | 43 | 999.7 |
| 20260902011523 | 88 | 326 | 13.9 | 19.1 | 0.00 | 0.00 | 0.00 | 41 | 999.4 |
| 20260902010014 | 92 | 265 | 6.1 | 12.2 | 0.00 | 0.00 | 0.00 | 33 | 999.4 |
| 20260902004515 | 93 | 182 | 8.7 | 14.8 | 0.00 | 0.00 | 0.00 | 32 | 999.1 |
| 20260902003020 | 93 | 163 | 13.0 | 20.0 | 0.00 | 0.00 | 0.00 | 32 | 998.8 |
| 20260902001521 | 93 | 184 | 17.4 | 21.7 | 0.00 | 0.00 | 0.00 | 32 | 998.7 |
| 20260902000016 | 94 | 141 | 18.2 | 26.1 | 0.00 | 0.00 | 0.00 | 31 | 998.5 |
| 20260901234531 | 95 | 144 | 15.6 | 24.3 | 0.00 | 0.00 | 0.00 | 30 | 998.4 |
| 20260901233010 | 95 | 144 | 13.0 | 17.4 | 0.00 | 0.00 | 0.00 | 27 | 998.2 |
| 20260901231511 | 95 | 146 | 8.7 | 16.5 | 0.00 | 0.00 | 0.00 | 28 | 998.2 |
| 20260901230008 | 95 | 137 | 11.3 | 19.1 | 0.00 | 0.00 | 0.00 | 28 | 998.2 |
| 20260901224549 | 96 | 144 | 9.6 | 18.2 | 0.00 | 0.00 | 0.00 | 28 | 998.2 |
| 20260901223027 | 95 | 121 | 5.2 | 16.5 | 0.00 | 0.00 | 0.00 | 29 | 998.3 |
| 20260901221521 | 96 | 137 | 7.0 | 13.9 | 0.00 | 0.00 | 0.00 | 28 | 998.5 |
| 20260901220018 | 95 | 156 | 7.8 | 17.4 | 0.00 | 0.00 | 0.00 | 29 | 998.6 |
| 20260901214515 | 94 | 98 | 5.2 | 20.0 | 0.00 | 0.00 | 0.00 | 29 | 998.7 |
| 20260901213014 | 94 | 123 | 13.0 | 17.4 | 0.00 | 0.00 | 0.00 | 29 | 998.8 |
| 20260901211513 | 94 | 77 | 7.8 | 12.2 | 0.00 | 0.00 | 0.00 | 30 | 999.1 |
| 20260901210009 | 94 | 118 | 10.4 | 20.0 | 0.00 | 0.00 | 0.00 | 30 | 999.3 |
| 20260901204503 | 95 | 133 | 11.3 | 17.4 | 0.00 | 0.00 | 0.00 | 30 | 999.6 |
| 20260901203123 | 94 | 51 | 8.7 | 21.7 | 0.00 | 0.00 | 0.00 | 31 | 1000.0 |
| 20260901201556 | 94 | 121 | 7.0 | 10.4 | 0.00 | 0.00 | 0.00 | 31 | 1000.2 |
| 20260901194502 | 93 | 105 | 5.2 | 14.8 | 0.00 | 0.00 | 0.00 | 32 | 1000.5 |
| 20260901193059 | 93 | 130 | 7.0 | 13.9 | 0.00 | 0.00 | 0.00 | 32 | 1000.6 |
| 20260901191556 | 92 | 111 | 4.3 | 12.2 | 0.00 | 0.00 | 0.00 | 33 | 1000.9 |
| 20260901190106 | 92 | 113 | 7.8 | 20.0 | 0.00 | 0.00 | 0.00 | 33 | 1001.1 |
| 20260901184530 | 92 | 279 | 1.7 | 12.2 | 0.00 | 0.00 | 0.00 | 34 | 1001.4 |
| 20260901183038 | 92 | 144 | 10.4 | 14.8 | 0.00 | 0.00 | 0.00 | 34 | 1001.6 |
| 20260901181559 | 91 | 146 | 4.3 | 13.0 | 0.00 | 0.00 | 0.00 | 35 | 1001.7 |
| 20260901180054 | 90 | 44 | 0.9 | 12.2 | 0.00 | 0.00 | 0.00 | 36 | 1001.9 |
| 20260901174551 | 89 | 211 | 7.0 | 12.2 | 0.00 | 0.00 | 0.00 | 37 | 1002.1 |
| 20260901173105 | 89 | 137 | 5.2 | 10.4 | 0.00 | 0.00 | 0.00 | 37 | 1002.1 |
| 20260901171548 | 89 | 194 | 5.2 | 10.4 | 0.00 | 0.00 | 0.00 | 37 | 1002.4 |
| 20260901170058 | 88 | 184 | 7.0 | 13.0 | 0.00 | 0.00 | 0.00 | 39 | 1002.5 |
| 20260901164605 | 87 | 202 | 7.0 | 11.3 | 0.00 | 0.00 | 0.00 | 40 | 1002.4 |
| 20260901163049 | 86 | 173 | 9.6 | 13.9 | 0.00 | 0.00 | 0.00 | 42 | 1002.5 |
| 20260901161529 | 86 | 160 | 7.8 | 13.0 | 0.00 | 0.00 | 0.00 | 43 | 1002.5 |
| 20260901160031 | 86 | 189 | 7.0 | 10.4 | 0.00 | 0.00 | 0.00 | 43 | 1002.5 |
| 20260901154528 | 85 | 210 | 3.5 | 7.0 | 0.00 | 0.00 | 0.00 | 45 | 1002.6 |
| 20260901153036 | 84 | 178 | 3.5 | 6.1 | 0.00 | 0.00 | 0.00 | 46 | 1002.5 |
| 20260901151522 | 83 | 189 | 4.3 | 7.0 | 0.00 | 0.00 | 0.00 | 49 | 1002.4 |
| 20260901150015 | 81 | 157 | 5.2 | 7.8 | 0.00 | 0.00 | 0.00 | 52 | 1002.5 |
| 20260901144524 | 80 | 178 | 6.1 | 8.7 | 0.00 | 0.00 | 0.00 | 54 | 1002.6 |
| 20260901143008 | 78 | 158 | 11.3 | 14.8 | 0.00 | 0.00 | 0.00 | 56 | 1002.6 |
| 20260901141511 | 78 | 155 | 12.2 | 15.6 | 0.00 | 0.00 | 0.00 | 57 | 1002.5 |
| 20260901140007 | 77 | 148 | 12.2 | 16.5 | 0.00 | 0.00 | 0.00 | 59 | 1002.6 |
| 20260901134508 | 76 | 149 | 10.4 | 13.9 | 0.00 | 0.00 | 0.00 | 60 | 1002.5 |
| 20260901133007 | 75 | 149 | 9.6 | 12.2 | 0.00 | 0.00 | 0.00 | 61 | 1002.4 |
| 20260901131508 | 75 | 144 | 9.6 | 12.2 | 0.00 | 0.00 | 0.00 | 62 | 1002.2 |
| 20260901130004 | 75 | 144 | 8.7 | 12.2 | 0.00 | 0.00 | 0.00 | 62 | 1002.1 |
| 20260901124502 | 75 | 144 | 8.7 | 11.3 | 0.00 | 0.00 | 0.00 | 62 | 1001.8 |
| 20260901123058 | 75 | 142 | 10.4 | 13.0 | 0.00 | 0.00 | 0.00 | 61 | 1001.5 |
| 20260901121610 | 75 | 139 | 9.6 | 12.2 | 0.00 | 0.00 | 0.00 | 61 | 1001.3 |
| 20260901120106 | 75 | 139 | 9.6 | 12.2 | 0.00 | 0.00 | 0.00 | 61 | 1001.2 |
| 20260901114601 | 75 | 144 | 11.3 | 13.9 | 0.00 | 0.00 | 0.00 | 61 | 1001.2 |
| 20260901113055 | 76 | 146 | 10.4 | 14.8 | 0.00 | 0.00 | 0.00 | 60 | 1001.1 |
| 20260901111554 | 76 | 140 | 11.3 | 13.9 | 0.00 | 0.00 | 0.00 | 60 | 1001.2 |
| 20260901110152 | 76 | 153 | 11.3 | 13.9 | 0.00 | 0.00 | 0.00 | 59 | 1001.1 |
| 20260901104551 | 77 | 142 | 11.3 | 13.9 | 0.00 | 0.00 | 0.00 | 58 | 1001.0 |
| 20260901103106 | 77 | 138 | 8.7 | 12.2 | 0.00 | 0.00 | 0.00 | 58 | 1000.8 |